When you browse on this site, cookies collect data to enhance your experience and personalize the content and advertising you see.
Visit our Privacy Policy to learn more. By continuing to use the site, you agree to this use of cookies and data.
  • In Spain
  • List of Countries
  • For 7 days
  • Water Temperature
  • Weather Map
  • Weather Widgets
  • user-avatar
    Login

    Hourly Weather Luksor

    Today, 28 February, Friday

    Time Temperature Precipitation Wind Pressure Humidity
    00:00 +16°C° 0 mm 1 mps 754 mmHg 39%
    01:00 +16°C° 0 mm 1 mps 753 mmHg 43%
    02:00 +15°C° 0 mm 1 mps 753 mmHg 47%
    03:00 +14°C° 0 mm 1 mps 753 mmHg 50%
    04:00 +14°C° 0 mm 1 mps 753 mmHg 53%
    05:00 +14°C° 0 mm 1 mps 753 mmHg 55%
    06:00 +16°C° 0 mm 1 mps 753 mmHg 47%
    07:00 +19°C° 0 mm 1 mps 753 mmHg 39%
    08:00 +22°C° 0 mm 1 mps 754 mmHg 30%
    09:00 +24°C° 0 mm 1 mps 754 mmHg 26%
    10:00 +26°C° 0 mm 2 mps 754 mmHg 22%
    11:00 +28°C° 0 mm 2 mps 754 mmHg 18%
    12:00 +29°C° 0 mm 3 mps 753 mmHg 15%
    13:00 +31°C° 0 mm 3 mps 752 mmHg 13%
    14:00 +33°C° 0 mm 4 mps 751 mmHg 11%
    15:00 +33°C° 0 mm 4 mps 751 mmHg 11%
    16:00 +32°C° 0 mm 4 mps 751 mmHg 11%
    17:00 +32°C° 0 mm 4 mps 751 mmHg 11%
    18:00 +29°C° 0 mm 4 mps 752 mmHg 13%
    19:00 +26°C° 0 mm 4 mps 752 mmHg 16%
    20:00 +23°C° 0 mm 4 mps 752 mmHg 18%
    21:00 +22°C° 0 mm 4 mps 752 mmHg 20%
    22:00 +21°C° 0 mm 4 mps 753 mmHg 22%
    23:00 +20°C° 0 mm 3 mps 753 mmHg 23%

    Tomorrow, 29 February, Saturday

    Time Temperature Precipitation Wind Pressure Humidity
    00:00 +19°C° 0 mm 3 mps 753 mmHg 25%
    01:00 +18°C° 0 mm 2 mps 752 mmHg 26%
    02:00 +17°C° 0 mm 2 mps 752 mmHg 28%
    03:00 +16°C° 0 mm 2 mps 752 mmHg 29%
    04:00 +15°C° 0 mm 2 mps 752 mmHg 30%
    05:00 +15°C° 0 mm 2 mps 752 mmHg 31%
    06:00 +16°C° 0 mm 2 mps 753 mmHg 28%
    07:00 +18°C° 0 mm 2 mps 753 mmHg 25%
    08:00 +20°C° 0 mm 2 mps 754 mmHg 22%
    09:00 +22°C° 0 mm 3 mps 754 mmHg 21%
    10:00 +25°C° 0 mm 5 mps 754 mmHg 20%
    11:00 +27°C° 0 mm 6 mps 754 mmHg 19%
    12:00 +28°C° 0 mm 6 mps 753 mmHg 17%
    13:00 +28°C° 0 mm 7 mps 752 mmHg 16%
    14:00 +29°C° 0 mm 7 mps 752 mmHg 15%
    15:00 +28°C° 0 mm 7 mps 752 mmHg 17%
    16:00 +27°C° 0 mm 7 mps 752 mmHg 18%
    17:00 +26°C° 0 mm 8 mps 752 mmHg 20%
    18:00 +23°C° 0 mm 6 mps 753 mmHg 23%
    19:00 +21°C° 0 mm 5 mps 753 mmHg 27%
    20:00 +19°C° 0 mm 4 mps 754 mmHg 30%
    21:00 +18°C° 0 mm 4 mps 754 mmHg 33%
    22:00 +17°C° 0 mm 4 mps 754 mmHg 36%
    23:00 +16°C° 0 mm 3 mps 755 mmHg 38%

    Day after tomorrow, 1 March, Sunday

    Time Temperature Precipitation Wind Pressure Humidity
    00:00 +14°C° 0 mm 3 mps 754 mmHg 40%
    01:00 +14°C° 0 mm 3 mps 754 mmHg 42%
    02:00 +13°C° 0 mm 3 mps 754 mmHg 44%
    03:00 +13°C° 0 mm 3 mps 754 mmHg 48%
    04:00 +12°C° 0 mm 3 mps 754 mmHg 51%
    05:00 +11°C° 0 mm 3 mps 754 mmHg 55%
    06:00 +13°C° 0 mm 4 mps 755 mmHg 53%
    07:00 +14°C° 0 mm 4 mps 755 mmHg 51%
    08:00 +15°C° 0 mm 5 mps 756 mmHg 49%
    09:00 +17°C° 0 mm 6 mps 756 mmHg 41%
    10:00 +20°C° 0 mm 7 mps 755 mmHg 34%
    11:00 +23°C° 0 mm 8 mps 755 mmHg 26%
    12:00 +24°C° 0 mm 7 mps 755 mmHg 21%
    13:00 +26°C° 0 mm 7 mps 754 mmHg 16%
    14:00 +28°C° 0 mm 7 mps 753 mmHg 11%
    15:00 +27°C° 0 mm 7 mps 753 mmHg 11%
    16:00 +27°C° 0 mm 6 mps 753 mmHg 11%
    17:00 +26°C° 0 mm 6 mps 753 mmHg 11%
    18:00 +23°C° 0 mm 6 mps 754 mmHg 14%
    19:00 +20°C° 0 mm 5 mps 754 mmHg 18%
    20:00 +17°C° 0 mm 5 mps 755 mmHg 22%
    21:00 +17°C° 0 mm 4 mps 755 mmHg 26%
    22:00 +14°C° 0 mm 4 mps 755 mmHg 30%
    23:00 +13°C° 0 mm 3 mps 756 mmHg 34%

    2 March, Monday

    Time Temperature Precipitation Wind Pressure Humidity
    00:00 +13°C° 0 mm 2 mps 755 mmHg 38%
    01:00 +13°C° 0 mm 2 mps 755 mmHg 42%
    02:00 +12°C° 0 mm 2 mps 755 mmHg 45%
    03:00 +10°C° 0 mm 2 mps 755 mmHg 48%
    04:00 +10°C° 0 mm 2 mps 755 mmHg 51%
    05:00 +9°C° 0 mm 2 mps 755 mmHg 54%
    06:00 +12°C° 0 mm 2 mps 755 mmHg 50%
    07:00 +13°C° 0 mm 2 mps 755 mmHg 46%
    08:00 +15°C° 0 mm 2 mps 756 mmHg 42%
    09:00 +17°C° 0 mm 2 mps 756 mmHg 36%
    10:00 +20°C° 0 mm 2 mps 755 mmHg 29%
    11:00 +23°C° 0 mm 2 mps 755 mmHg 23%
    12:00 +25°C° 0 mm 2 mps 754 mmHg 19%
    13:00 +27°C° 0 mm 3 mps 754 mmHg 15%
    14:00 +29°C° 0 mm 3 mps 753 mmHg 11%
    15:00 +28°C° 0 mm 3 mps 753 mmHg 11%
    16:00 +28°C° 0 mm 2 mps 753 mmHg 10%
    17:00 +28°C° 0 mm 2 mps 753 mmHg 10%
    18:00 +25°C° 0 mm 2 mps 753 mmHg 12%
    19:00 +23°C° 0 mm 2 mps 754 mmHg 14%
    20:00 +19°C° 0 mm 3 mps 754 mmHg 16%
    21:00 +18°C° 0 mm 2 mps 754 mmHg 20%
    22:00 +17°C° 0 mm 2 mps 755 mmHg 23%
    23:00 +15°C° 0 mm 2 mps 755 mmHg 27%

    3 March, Tuesday

    Time Temperature Precipitation Wind Pressure Humidity
    00:00 +15°C° 0 mm 1 mps 754 mmHg 29%
    01:00 +14°C° 0 mm 1 mps 754 mmHg 31%
    02:00 +13°C° 0 mm 1 mps 754 mmHg 34%
    03:00 +13°C° 0 mm 1 mps 754 mmHg 36%
    04:00 +12°C° 0 mm 1 mps 754 mmHg 39%
    05:00 +12°C° 0 mm 1 mps 754 mmHg 42%
    06:00 +14°C° 0 mm 1 mps 754 mmHg 38%
    07:00 +16°C° 0 mm 1 mps 754 mmHg 34%
    08:00 +19°C° 0 mm 1 mps 755 mmHg 29%
    09:00 +22°C° 0 mm 1 mps 755 mmHg 25%
    10:00 +25°C° 0 mm 1 mps 754 mmHg 21%
    11:00 +27°C° 0 mm 1 mps 754 mmHg 16%
    12:00 +29°C° 0 mm 1 mps 754 mmHg 13%
    13:00 +30°C° 0 mm 1 mps 753 mmHg 11%
    14:00 +32°C° 0 mm 1 mps 752 mmHg 8%
    15:00 +31°C° 0 mm 1 mps 752 mmHg 8%
    16:00 +31°C° 0 mm 1 mps 752 mmHg 8%
    17:00 +30°C° 0 mm 2 mps 752 mmHg 7%
    18:00 +28°C° 0 mm 2 mps 752 mmHg 9%
    19:00 +25°C° 0 mm 2 mps 752 mmHg 12%
    20:00 +23°C° 0 mm 2 mps 753 mmHg 14%
    21:00 +20°C° 0 mm 2 mps 753 mmHg 16%
    22:00 +19°C° 0 mm 2 mps 753 mmHg 18%
    23:00 +18°C° 0 mm 1 mps 753 mmHg 20%

    4 March, Wednesday

    Time Temperature Precipitation Wind Pressure Humidity
    00:00 +18°C° 0 mm 1 mps 753 mmHg 20%
    01:00 +16°C° 0 mm 1 mps 752 mmHg 21%
    02:00 +15°C° 0 mm 1 mps 752 mmHg 22%
    03:00 +15°C° 0 mm 1 mps 752 mmHg 21%
    04:00 +14°C° 0 mm 1 mps 752 mmHg 21%
    05:00 +14°C° 0 mm 1 mps 752 mmHg 20%
    06:00 +18°C° 0 mm 1 mps 752 mmHg 18%
    07:00 +20°C° 0 mm 1 mps 752 mmHg 15%
    08:00 +23°C° 0 mm 1 mps 753 mmHg 12%
    09:00 +25°C° 0 mm 1 mps 752 mmHg 11%
    10:00 +27°C° 0 mm 1 mps 752 mmHg 9%
    11:00 +28°C° 0 mm 0 mps 752 mmHg 7%
    12:00 +31°C° 0 mm 1 mps 751 mmHg 6%
    13:00 +32°C° 0 mm 1 mps 751 mmHg 6%
    14:00 +33°C° 0 mm 1 mps 750 mmHg 5%
    15:00 +34°C° 0 mm 2 mps 750 mmHg 5%
    16:00 +32°C° 0 mm 2 mps 750 mmHg 5%
    17:00 +32°C° 0 mm 2 mps 750 mmHg 5%
    18:00 +29°C° 0 mm 2 mps 750 mmHg 6%
    19:00 +26°C° 0 mm 2 mps 750 mmHg 7%
    20:00 +23°C° 0 mm 2 mps 751 mmHg 8%
    21:00 +23°C° 0 mm 2 mps 751 mmHg 9%
    22:00 +21°C° 0 mm 2 mps 751 mmHg 10%
    23:00 +20°C° 0 mm 2 mps 751 mmHg 10%
    Show more